Date String (YYYY-MM-DD hh:mm:ss) UTC,Instrument flags,Ambient pressure (hPa),Sample flow (lpm),Bypass flow (lpm),Sample temperature (°C),Ambient temperature (°C),ASC tube jacket temperature (°C),LED temperature (°C),Box temperature (°C),Sample RH (%),Span deviation,Mass concentration (μg/m³),Mass concentration (μg/m³),Mass concentration (μg/m³)
DateTimeUTC,F1_M11,P_M11,Q1_M11,Q2_M11,T1_M11,T2_M11,T3_M11,T4_M11,T5_M11,U1_M11,ZSPAN_M11,X0_M11,X2_M11,X1_M11
2022-05-18 22:00:00,,0823.9,5.01,0.00,29.3,27.3,00.0,38.2,31.1,07.9,0000.0,0007.66,0003.49,0001.96
2022-05-18 22:01:00,,0823.9,5.00,0.00,29.3,27.5,00.0,38.2,31.1,07.8,0000.0,0007.56,0003.46,0001.94
2022-05-18 22:02:00,,0823.8,4.98,0.00,29.3,27.7,00.0,38.2,31.2,07.7,0000.0,0007.54,0003.45,0001.92
2022-05-18 22:03:00,,0823.8,5.00,0.00,29.4,27.9,00.0,38.2,31.2,07.5,0000.0,0008.12,0003.49,0001.93
2022-05-18 22:04:00,,0823.8,5.01,0.00,29.4,28.1,00.0,38.2,31.3,06.8,0000.0,0008.16,0003.47,0001.93
2022-05-18 22:05:00,,0823.8,5.00,0.00,29.4,28.2,00.0,38.2,31.3,06.6,0000.0,0008.20,0003.47,0001.92
2022-05-18 22:06:00,,0823.8,5.00,0.00,29.5,28.4,00.0,38.2,31.4,07.4,0000.0,0008.26,0003.50,0001.92
2022-05-18 22:07:00,,0823.7,4.99,0.00,29.5,28.5,00.0,38.3,31.5,07.3,0000.0,0008.24,0003.43,0001.91
2022-05-18 22:08:00,,0823.7,5.00,0.00,29.5,28.7,00.0,38.3,31.5,07.3,0000.0,0008.19,0003.40,0001.90
2022-05-18 22:09:00,,0823.7,5.02,0.00,29.6,28.8,00.0,38.3,31.6,07.8,0000.0,0008.00,0003.35,0001.90
2022-05-18 22:10:00,,0823.7,4.99,0.00,29.6,28.3,00.0,38.3,31.4,07.7,0000.0,0008.33,0003.32,0001.90
2022-05-18 22:11:00,,0823.7,5.00,0.00,29.5,27.4,00.0,38.2,31.2,07.4,0000.0,0008.46,0003.34,0001.90
2022-05-18 22:12:00,,0823.7,5.00,0.00,29.4,27.1,00.0,38.2,31.1,07.6,0000.0,0008.62,0003.40,0001.93
2022-05-18 22:13:00,,0823.7,5.01,0.00,29.4,27.2,00.0,38.2,31.1,07.5,0000.0,0008.57,0003.39,0001.94
2022-05-18 22:14:00,,0823.7,4.99,0.00,29.3,27.3,00.0,38.2,31.1,07.8,0000.0,0007.94,0003.36,0001.93
2022-05-18 22:15:00,,0823.7,4.99,0.00,29.3,27.5,00.0,38.2,31.1,08.4,0000.0,0007.92,0003.37,0001.93
2022-05-18 22:16:00,,0823.7,5.01,0.00,29.4,27.7,00.0,38.2,31.2,08.8,0000.0,0007.93,0003.41,0001.93
2022-05-18 22:17:00,,0823.7,5.00,0.00,29.4,27.9,00.0,38.2,31.2,08.1,0000.0,0007.89,0003.39,0001.94
2022-05-18 22:18:00,,0823.7,5.00,0.00,29.4,28.1,00.0,38.2,31.3,07.7,0000.0,0007.78,0003.41,0001.95
2022-05-18 22:19:00,,0823.6,5.00,0.00,29.4,28.3,00.0,38.2,31.4,07.4,0000.0,0007.79,0003.40,0001.96
2022-05-18 22:20:00,,0823.7,4.99,0.00,29.5,28.4,00.0,38.3,31.4,08.1,0000.0,0008.06,0003.45,0001.98
2022-05-18 22:21:00,,0823.7,5.00,0.00,29.5,28.6,00.0,38.3,31.5,07.8,0000.0,0007.71,0003.46,0001.97
2022-05-18 22:22:00,,0823.7,5.01,0.00,29.6,28.7,00.0,38.3,31.5,07.9,0000.0,0007.67,0003.47,0001.98
2022-05-18 22:23:00,,0823.6,4.99,0.00,29.6,28.5,00.0,38.3,31.5,07.6,0000.0,0007.90,0003.46,0001.96
2022-05-18 22:24:00,,0823.7,5.00,0.00,29.5,27.6,00.0,38.2,31.2,08.1,0000.0,0008.01,0003.44,0001.96
2022-05-18 22:25:00,,0823.7,5.01,0.00,29.4,27.1,00.0,38.2,31.1,08.1,0000.0,0008.09,0003.45,0001.95
2022-05-18 22:26:00,,0823.7,5.01,0.00,29.4,27.1,00.0,38.2,31.0,07.9,0000.0,0008.11,0003.47,0001.96
2022-05-18 22:27:00,,0823.7,5.00,0.00,29.3,27.2,00.0,38.2,31.0,08.0,0000.0,0008.12,0003.46,0001.95
2022-05-18 22:28:00,,0823.6,5.00,0.00,29.3,27.4,00.0,38.2,31.1,07.6,0000.0,0008.08,0003.45,0001.96
2022-05-18 22:29:00,,0823.6,4.99,0.00,29.3,27.6,00.0,38.2,31.1,07.3,0000.0,0008.07,0003.45,0001.97
2022-05-18 22:30:00,,0823.5,5.01,0.00,29.3,27.8,00.0,38.2,31.2,07.9,0000.0,0008.07,0003.44,0001.94
2022-05-18 22:31:00,,0823.5,5.00,0.00,29.4,28.0,00.0,38.2,31.3,07.3,0000.0,0007.85,0003.43,0001.92
2022-05-18 22:32:00,,0823.6,4.99,0.00,29.4,28.2,00.0,38.2,31.3,07.0,0000.0,0007.79,0003.41,0001.91
2022-05-18 22:33:00,,0823.6,5.01,0.00,29.4,28.4,00.0,38.2,31.4,07.4,0000.0,0007.74,0003.39,0001.89
2022-05-18 22:34:00,,0823.6,5.00,0.00,29.5,28.5,00.0,38.3,31.4,07.4,0000.0,0007.47,0003.37,0001.87
2022-05-18 22:35:00,,0823.4,4.99,0.00,29.5,28.7,00.0,38.3,31.5,07.4,0000.0,0007.58,0003.40,0001.87
2022-05-18 22:36:00,,0823.4,5.01,0.00,29.6,28.7,00.0,38.3,31.5,07.7,0000.0,0007.67,0003.39,0001.86
2022-05-18 22:37:00,,0823.5,5.00,0.00,29.6,28.0,00.0,38.2,31.3,07.9,0000.0,0007.62,0003.37,0001.86
2022-05-18 22:38:00,,0823.4,4.99,0.00,29.5,27.3,00.0,38.2,31.1,08.6,0000.0,0007.54,0003.36,0001.85
2022-05-18 22:39:00,,0823.4,5.00,0.00,29.4,27.1,00.0,38.2,31.0,08.4,0000.0,0008.07,0003.30,0001.82
2022-05-18 22:40:00,,0823.4,5.00,0.00,29.3,27.2,00.0,38.2,31.0,07.8,0000.0,0008.36,0003.30,0001.82
2022-05-18 22:41:00,,0823.4,5.00,0.00,29.3,27.4,00.0,38.2,31.1,08.1,0000.0,0008.89,0003.34,0001.84
2022-05-18 22:42:00,,0823.3,5.00,0.00,29.3,27.6,00.0,38.2,31.1,08.4,0000.0,0009.41,0003.33,0001.84
2022-05-18 22:43:00,,0823.3,4.99,0.00,29.4,27.8,00.0,38.2,31.2,08.2,0000.0,0009.32,0003.28,0001.83
2022-05-18 22:44:00,,0823.3,5.00,0.00,29.4,28.0,00.0,38.2,31.3,08.2,0000.0,0009.29,0003.27,0001.83
2022-05-18 22:45:00,,0823.4,5.01,0.00,29.4,28.2,00.0,38.2,31.3,08.0,0000.0,0009.21,0003.25,0001.84
2022-05-18 22:46:00,,0823.4,4.99,0.00,29.5,28.4,00.0,38.2,31.4,08.4,0000.0,0009.02,0003.24,0001.86
2022-05-18 22:47:00,,0823.3,5.01,0.00,29.5,28.5,00.0,38.3,31.5,08.9,0000.0,0008.89,0003.27,0001.88
2022-05-18 22:48:00,,0823.3,4.99,0.00,29.5,28.7,00.0,38.3,31.5,08.8,0000.0,0008.99,0003.28,0001.88
2022-05-18 22:49:00,,0823.4,5.02,0.00,29.6,28.6,00.0,38.3,31.5,08.6,0000.0,0009.08,0003.30,0001.90
2022-05-18 22:50:00,,0823.4,5.01,0.00,29.5,27.8,00.0,38.2,31.3,08.4,0000.0,0008.83,0003.32,0001.90
2022-05-18 22:51:00,,0823.3,4.99,0.00,29.4,27.2,00.0,38.2,31.1,08.3,0000.0,0008.57,0003.34,0001.89
2022-05-18 22:52:00,,0823.3,5.00,0.00,29.4,27.1,00.0,38.2,31.0,08.3,0000.0,0008.14,0003.36,0001.90
2022-05-18 22:53:00,,0823.3,5.00,0.00,29.3,27.2,00.0,38.2,31.0,08.3,0000.0,0007.68,0003.38,0001.91
2022-05-18 22:54:00,,0823.3,5.00,0.00,29.3,27.4,00.0,38.2,31.1,08.1,0000.0,0007.80,0003.41,0001.92
2022-05-18 22:55:00,,0823.3,5.01,0.00,29.3,27.6,00.0,38.2,31.1,07.9,0000.0,0008.08,0003.41,0001.91
2022-05-18 22:56:00,,0823.3,5.00,0.00,29.3,27.8,00.0,38.2,31.2,08.3,0000.0,0008.28,0003.44,0001.91
2022-05-18 22:57:00,,0823.2,5.00,0.00,29.4,28.0,00.0,38.2,31.3,08.0,0000.0,0008.48,0003.47,0001.89
2022-05-18 22:58:00,,0823.2,5.01,0.00,29.4,28.2,00.0,38.2,31.3,08.7,0000.0,0008.49,0003.45,0001.87
2022-05-18 22:59:00,,0823.2,4.99,0.00,29.4,28.4,00.0,38.2,31.4,08.6,0000.0,0009.08,0003.46,0001.87
